Weather History for Douglas, WY

Change the Weather History Date:

Wednesday, January 16, 2013

  Actual Average Record
Temperature  
Mean Temperature 30 °F 25 °F  
Max Temperature 45 °F 39 °F 57 °F (2000)
Min Temperature 15 °F 11 °F -7 °F (2008)
Degree Days  
Heating Degree Days 35 40  
Month to date heating degree days 712 642  
Since 1 July heating degree days 3433 3731  
Cooling Degree Days 0 0  
Month to date cooling degree days 0 0  
Year to date cooling degree days 0 0  
Moisture  
Dew Point 14 °F    
Average Humidity 51    
Maximum Humidity 74    
Minimum Humidity 28    
Precipitation  
Precipitation 0.00 in 0.01 in 0.02 in (2012)
Month to date precipitation T 0.16  
Year to date precipitation T 0.16  
Sea Level Pressure  
Sea Level Pressure 30.29 in    
Wind  
Wind Speed 12 mph (NW)    
Max Wind Speed 30 mph    
Max Gust Speed 37 mph    
Visibility 10 miles    
Events      
T = Trace of Precipitation, MM = Missing Value Source: NWS Daily Summary

Daily Weather History Graph

Daily Weather History Graph

Search for Another Location

Airport:

Trip Planner

Search our weather history database for the weather conditions in past years. The results will help you decide how hot, cold, wet, or windy it might be!

Date:

Astronomy

Jan. 16, 2013 Rise Set
Actual Time 7:28 AM MST 4:54 PM MST
Civil Twilight 6:57 AM MST 5:25 PM MST
Nautical Twilight 6:22 AM MST 6:00 PM MST
Astronomical Twilight 5:48 AM MST 6:34 PM MST
Moon 9:57 AM MST (1/16) 10:58 PM MST (1/16)
Length of Visible Light 10h 28m
Length of Day
9h 25m
Waxing Crescent, 29% of the Moon is Illuminated
Jan 16
Waxing Crescent
Jan 18
First Quarter
Jan 26
Full
Feb 3
Last Quarter
Feb 10
New

Hourly Weather History & Observations

Time (MST) Temp. Windchill Dew Point Humidity Pressure Visibility Wind Dir Wind Speed Gust Speed Precip Events Conditions
12:53 AM 28.0 °F 17.5 °F 16.0 °F 61% 30.18 in 10.0 mi NNW 12.7 mph - N/A   Mostly Cloudy
1:53 AM 32.0 °F 22.5 °F 18.0 °F 56% 30.17 in 10.0 mi NNW 12.7 mph 23.0 mph N/A   Overcast
2:53 AM 28.9 °F 19.2 °F 16.0 °F 58% 30.18 in 10.0 mi NNW 11.5 mph - N/A   Overcast
3:53 AM 28.0 °F 17.5 °F 16.0 °F 61% 30.19 in 10.0 mi NW 12.7 mph - N/A   Mostly Cloudy
4:53 AM 26.1 °F 16.2 °F 15.1 °F 63% 30.19 in 10.0 mi NW 10.4 mph - N/A   Clear
5:53 AM 24.1 °F 13.1 °F 12.9 °F 62% 30.23 in 10.0 mi NNW 11.5 mph - N/A   Clear
6:53 AM 25.0 °F 14.2 °F 12.9 °F 60% 30.24 in 10.0 mi NNW 11.5 mph - N/A   Clear
7:53 AM 24.1 °F 18.2 °F 12.0 °F 60% 30.25 in 10.0 mi NW 4.6 mph - N/A   Clear
8:53 AM 30.9 °F 20.7 °F 15.1 °F 52% 30.26 in 10.0 mi NW 13.8 mph - N/A   Clear
9:53 AM 36.0 °F 27.1 °F 16.0 °F 44% 30.26 in 10.0 mi NW 13.8 mph 23.0 mph N/A   Clear
10:53 AM 41.0 °F 31.4 °F 18.0 °F 40% 30.25 in 10.0 mi NW 21.9 mph 26.5 mph N/A   Clear
1:53 PM 45.0 °F 36.2 °F 14.0 °F 29% 30.19 in 10.0 mi WNW 24.2 mph 33.4 mph N/A   Clear
2:53 PM 43.0 °F 34.0 °F 14.0 °F 31% 30.24 in 10.0 mi WNW 21.9 mph 28.8 mph N/A   Clear
3:53 PM 39.9 °F 32.5 °F 14.0 °F 35% 30.28 in 10.0 mi NW 12.7 mph 20.7 mph N/A   Clear
4:53 PM 36.0 °F 29.6 °F 14.0 °F 41% 30.33 in 10.0 mi NW 8.1 mph - N/A   Clear
5:53 PM 30.0 °F 22.4 °F 14.0 °F 51% 30.38 in 10.0 mi NNW 8.1 mph - N/A   Clear
6:53 PM 24.1 °F 17.0 °F 12.0 °F 60% 30.43 in 10.0 mi WNW 5.8 mph - N/A   Clear
7:53 PM 21.0 °F 14.6 °F 10.0 °F 63% 30.46 in 10.0 mi NNW 4.6 mph - N/A   Clear
8:53 PM 19.9 °F 13.4 °F 10.9 °F 68% 30.45 in 10.0 mi NNW 4.6 mph - N/A   Clear
9:53 PM 18.0 °F 9.8 °F 10.0 °F 71% 30.44 in 10.0 mi NNW 5.8 mph - N/A   Clear
10:53 PM 18.0 °F 11.1 °F 10.0 °F 71% 30.43 in 10.0 mi NNW 4.6 mph - N/A   Clear
11:53 PM 15.1 °F 6.4 °F 8.1 °F 74% 30.45 in 10.0 mi North 5.8 mph - N/A   Clear